Weather History for Three Rivers, MI

Change the Weather History Date:

Sunday, February 25, 2007

  Actual Average Record
Temperature  
Mean Temperature 32 °F -  
Max Temperature 39 °F 37 °F 64 °F (1957)
Min Temperature 26 °F 18 °F -9 °F (1993)
Degree Days  
Heating Degree Days 32    
Moisture  
Dew Point 32 °F    
Average Humidity 90    
Maximum Humidity 93    
Minimum Humidity 74    
Precipitation  
Precipitation 0.00 in - - ()
Sea Level Pressure  
Sea Level Pressure 29.58 in    
Wind  
Wind Speed 13 mph (SE)    
Max Wind Speed 18 mph    
Max Gust Speed 28 mph    
Visibility 7 miles    
Events Rain , Snow    
Averages and records for this station are not official NWS values.
T = Trace of Precipitation, MM = Missing Value Source: NWS Daily Summary

Daily Weather History Graph

Daily Weather History Graph

Search for Another Location

Airport:

Trip Planner

Search our weather history database for the weather conditions in past years. The results will help you decide how hot, cold, wet, or windy it might be!

Date:

Astronomy

Feb. 25, 2007 Rise Set
Actual Time 7:24 AM EST 6:27 PM EST
Civil Twilight 6:55 AM EST 6:55 PM EST
Nautical Twilight 6:23 AM EST 7:27 PM EST
Astronomical Twilight 5:51 AM EST 8:00 PM EST
Moon 11:58 AM EST (2/25) 3:29 AM EST (2/25)
Length of Visible Light 11h 59m
Length of Day
11h 03m
Waxing Gibbous, 65% of the Moon is Illuminated
Feb 25
Waxing Gibbous
Mar 3
Full
Mar 11
Last Quarter
Mar 18
New
Mar 25
First Quarter

Hourly Weather History & Observations

Time (EST) Temp. Windchill Dew Point Humidity Pressure Visibility Wind Dir Wind Speed Gust Speed Precip Events Conditions
12:18 AM 28.4 °F 16.6 °F 21.2 °F 74% 29.92 in 5.0 mi East 16.1 mph 21.9 mph N/A   Overcast
12:37 AM 26.6 °F 14.3 °F 21.2 °F 80% 29.90 in 7.0 mi East 16.1 mph 21.9 mph N/A   Overcast
12:57 AM 26.6 °F 13.8 °F 23.0 °F 86% 29.87 in 4.0 mi East 17.3 mph 26.5 mph N/A   Overcast
1:17 AM 28.4 °F 15.8 °F 24.8 °F 86% 29.86 in 5.0 mi East 18.4 mph 26.5 mph N/A Snow Light Snow
1:37 AM 26.6 °F 14.3 °F 24.8 °F 93% 29.83 in 7.0 mi East 16.1 mph 27.6 mph N/A   Overcast
1:57 AM 28.4 °F 16.2 °F 24.8 °F 86% 29.80 in 5.0 mi East 17.3 mph 26.5 mph N/A   Overcast
2:17 AM 28.4 °F 15.8 °F 24.8 °F 86% 29.78 in 5.0 mi East 18.4 mph 25.3 mph N/A   Overcast
2:37 AM 28.4 °F 18.0 °F 26.6 °F 93% 29.75 in 4.0 mi East 12.7 mph 24.2 mph N/A   Overcast
2:57 AM 28.4 °F 17.0 °F 26.6 °F 93% 29.75 in 7.0 mi East 15.0 mph 19.6 mph N/A   Overcast
3:17 AM 28.4 °F 19.7 °F 26.6 °F 93% 29.72 in 10.0 mi East 9.2 mph 19.6 mph N/A   Overcast
3:37 AM 30.2 °F 20.8 °F 26.6 °F 86% 29.72 in 10.0 mi East 11.5 mph 20.7 mph N/A   Overcast
3:57 AM 30.2 °F 21.3 °F 28.4 °F 93% 29.71 in 2.5 mi East 10.4 mph 19.6 mph N/A   Overcast
4:17 AM 30.2 °F 19.8 °F 28.4 °F 93% 29.69 in 5.0 mi East 13.8 mph 21.9 mph N/A Snow Light Snow
4:37 AM 30.2 °F 19.3 °F 28.4 °F 93% 29.67 in 3.0 mi East 15.0 mph 19.6 mph N/A   Overcast
4:57 AM 32.0 °F 22.5 °F 30.2 °F 93% 29.66 in 10.0 mi East 12.7 mph 20.7 mph N/A   Overcast
5:17 AM 32.0 °F 24.2 °F 30.2 °F 93% 29.65 in 7.0 mi East 9.2 mph 17.3 mph N/A   Overcast
5:37 AM 33.8 °F 25.3 °F 30.2 °F 87% 29.65 in 10.0 mi ESE 11.5 mph 17.3 mph N/A   Overcast
5:57 AM 33.8 °F 23.9 °F 30.2 °F 87% 29.64 in 10.0 mi ESE 15.0 mph 20.7 mph N/A   Overcast
6:17 AM 33.8 °F 26.4 °F 32.0 °F 93% 29.63 in 10.0 mi ESE 9.2 mph 18.4 mph N/A   Overcast
6:37 AM 33.8 °F 25.8 °F 32.0 °F 93% 29.62 in 10.0 mi ESE 10.4 mph - N/A   Overcast
7:17 AM 35.6 °F 27.1 °F 33.8 °F 93% 29.60 in 10.0 mi ESE 12.7 mph 18.4 mph N/A   Overcast
7:37 AM 35.6 °F 25.9 °F 33.8 °F 93% 29.59 in 10.0 mi ESE 16.1 mph 23.0 mph N/A   Overcast
7:58 AM 35.6 °F 26.2 °F 33.8 °F 93% 29.58 in 10.0 mi East 15.0 mph 23.0 mph N/A   Overcast
8:17 AM 35.6 °F 25.9 °F 33.8 °F 93% 29.58 in 10.0 mi ESE 16.1 mph 20.7 mph N/A   Overcast
8:57 AM 35.6 °F 27.1 °F 33.8 °F 93% 29.58 in 1.8 mi ESE 12.7 mph 21.9 mph N/A Snow Light Snow
9:17 AM 37.4 °F 28.9 °F 33.8 °F 87% 29.56 in 3.0 mi ESE 13.8 mph 20.7 mph N/A Rain Light Rain
9:38 AM 37.4 °F 28.5 °F 33.8 °F 87% 29.55 in 7.0 mi ESE 15.0 mph 20.7 mph N/A Rain Rain
9:57 AM 37.4 °F 29.3 °F 33.8 °F 87% 29.54 in 10.0 mi ESE 12.7 mph - N/A   Overcast
10:17 AM 37.4 °F 28.9 °F 33.8 °F 87% 29.53 in 10.0 mi ESE 13.8 mph 23.0 mph N/A   Overcast
10:37 AM 37.4 °F 28.9 °F 33.8 °F 87% 29.52 in 10.0 mi ESE 13.8 mph 21.9 mph N/A   Overcast
10:57 AM 37.4 °F 28.5 °F 33.8 °F 87% 29.51 in 10.0 mi ESE 15.0 mph 19.6 mph N/A   Overcast
11:17 AM 37.4 °F 29.8 °F 33.8 °F 87% 29.50 in 10.0 mi ESE 11.5 mph 19.6 mph N/A   Overcast
11:37 AM 37.4 °F 28.9 °F 33.8 °F 87% 29.49 in 10.0 mi ESE 13.8 mph 21.9 mph N/A   Light Drizzle
11:57 AM 37.4 °F 29.8 °F 33.8 °F 87% 29.48 in 7.0 mi ESE 11.5 mph - N/A   Light Drizzle
12:17 PM 37.4 °F 30.3 °F 33.8 °F 87% 29.48 in 10.0 mi ESE 10.4 mph 19.6 mph N/A   Light Drizzle
12:37 PM 37.4 °F 29.8 °F 33.8 °F 87% 29.47 in 3.0 mi ESE 11.5 mph - N/A Rain Rain
12:57 PM 37.4 °F 30.8 °F 33.8 °F 87% 29.47 in 7.0 mi ESE 9.2 mph - N/A Rain Light Rain
1:17 PM 37.4 °F 30.3 °F 33.8 °F 87% 29.46 in 7.0 mi ESE 10.4 mph 16.1 mph N/A Rain Light Rain
1:37 PM 37.4 °F 30.3 °F 35.6 °F 93% 29.45 in 5.0 mi ESE 10.4 mph - N/A Rain Rain
1:57 PM 37.4 °F 32.1 °F 35.6 °F 93% 29.45 in 3.0 mi ESE 6.9 mph - N/A Rain Light Rain
2:17 PM - - - N/A% 29.44 in 3.0 mi ESE 3.5 mph - N/A Rain Rain
2:38 PM 37.4 °F - 35.6 °F 93% 29.44 in 5.0 mi Calm Calm - N/A Rain Light Rain
3:17 PM 37.4 °F 34.9 °F 35.6 °F 93% 29.44 in 4.0 mi ESE 3.5 mph - N/A Rain Light Rain
3:37 PM 37.4 °F - 35.6 °F 93% 29.44 in 7.0 mi Calm Calm - N/A   Overcast
3:57 PM 39.2 °F 35.9 °F 35.6 °F 87% 29.44 in 10.0 mi SSE 4.6 mph - N/A   Overcast
4:17 PM 39.2 °F 33.6 °F 35.6 °F 87% 29.44 in 10.0 mi SSE 8.1 mph - N/A   Overcast
4:37 PM 39.2 °F 33.6 °F 35.6 °F 87% 29.45 in 10.0 mi SSE 8.1 mph - N/A   Overcast
4:57 PM 39.2 °F 34.2 °F 35.6 °F 87% 29.45 in 5.0 mi South 6.9 mph - N/A   Light Drizzle
5:17 PM 39.2 °F 33.0 °F 37.4 °F 93% 29.46 in 3.0 mi South 9.2 mph - N/A Rain Light Rain
5:37 PM 37.4 °F 28.2 °F 35.6 °F 93% 29.48 in 3.0 mi SW 16.1 mph 20.7 mph N/A   Drizzle
5:57 PM 33.8 °F 25.3 °F 32.0 °F 93% 29.50 in 2.5 mi SW 11.5 mph 16.1 mph N/A Snow Light Snow
6:17 PM 33.8 °F 27.7 °F 32.0 °F 93% 29.51 in 1.5 mi SSW 6.9 mph - N/A Snow Light Snow
6:37 PM 33.8 °F 27.0 °F 32.0 °F 93% 29.52 in 1.8 mi SSW 8.1 mph - N/A Snow Light Snow
6:57 PM 33.8 °F 27.0 °F 32.0 °F 93% 29.52 in 7.0 mi SSW 8.1 mph - N/A Snow Light Snow
7:17 PM 33.8 °F 27.0 °F 32.0 °F 93% 29.53 in 7.0 mi SSW 8.1 mph - N/A Snow Light Snow
7:37 PM 33.8 °F 26.4 °F 32.0 °F 93% 29.53 in 7.0 mi SSW 9.2 mph - N/A Snow Light Snow
7:57 PM 33.8 °F 25.8 °F 32.0 °F 93% 29.53 in 5.0 mi South 10.4 mph - N/A   Overcast
8:17 PM 33.8 °F 25.8 °F 32.0 °F 93% 29.53 in 5.0 mi South 10.4 mph - N/A Snow Light Snow
8:37 PM 33.8 °F 27.7 °F 32.0 °F 93% 29.53 in 7.0 mi South 6.9 mph - N/A Snow Light Snow
8:58 PM 33.8 °F 26.4 °F 32.0 °F 93% 29.54 in 5.0 mi South 9.2 mph - N/A   Overcast
9:17 PM 33.8 °F 25.8 °F 32.0 °F 93% 29.54 in 7.0 mi South 10.4 mph - N/A   Overcast
9:37 PM 33.8 °F 25.3 °F 30.2 °F 87% 29.54 in 10.0 mi SSW 11.5 mph - N/A   Overcast
9:57 PM 33.8 °F 24.3 °F 30.2 °F 87% 29.55 in 10.0 mi SSW 13.8 mph 18.4 mph N/A   Overcast
10:17 PM 33.8 °F 27.7 °F 28.4 °F 81% 29.55 in 10.0 mi SSW 6.9 mph - N/A   Overcast
10:37 PM 33.8 °F 25.8 °F 28.4 °F 81% 29.55 in 10.0 mi SSW 10.4 mph 17.3 mph N/A   Overcast
10:59 PM 33.8 °F 25.8 °F 28.4 °F 81% 29.55 in 10.0 mi SSW 10.4 mph 17.3 mph N/A   Overcast
11:17 PM 32.0 °F 22.5 °F 28.4 °F 87% 29.56 in 10.0 mi SSW 12.7 mph 19.6 mph N/A   Overcast
11:37 PM 32.0 °F 21.2 °F 28.4 °F 87% 29.56 in 10.0 mi SSW 16.1 mph 20.7 mph N/A   Overcast
11:58 PM 32.0 °F 23.0 °F 28.4 °F 87% 29.56 in 10.0 mi South 11.5 mph 18.4 mph N/A   Overcast